Le nostre stazioni meteo in Italia

Pubblicità
Il mio iltempo24.it
Capo Spartivento, Italia (16469): Temperatura & dewpoint: 17.07.2018 05:00:00 - 23.07.2018 05:00:00 (CEST)Capo Spartivento, Italia (16469): velocità del vento: 17.07.2018 05:00:00 - 23.07.2018 05:00:00 (CEST)Capo Spartivento, Italia (16469): direzione del vento: 17.07.2018 05:00:00 - 23.07.2018 05:00:00 (CEST)Capo Spartivento, Italia (16469): reduced air pressure: 17.07.2018 05:00:00 - 23.07.2018 05:00:00 (CEST)Capo Spartivento, Italia (16469): precipitazioni: 17.07.2018 05:00:00 - 23.07.2018 05:00:00 (CEST)
Data & Tempo tt [°C] td [°C] ff [km/h] ff [kn] dd ppp [hPa] rr [mm]
23.07.2018 05:00:00 - - - - - - -
23.07.2018 04:00:00 28,4 22,6 8 4 N 1009,0 -
23.07.2018 03:00:00 28,6 20,0 13 7 NNO 1009,5 -
23.07.2018 02:00:00 28,5 19,9 13 7 SE 1009,4 0,0
23.07.2018 01:00:00 29,1 23,3 9 5 S 1009,8 -
23.07.2018 00:00:00 29,6 20,4 4 2 O 1010,5 -
22.07.2018 23:00:00 30,0 20,5 4 2 ONO 1010,5 -
22.07.2018 22:00:00 29,4 22,1 9 5 NNO 1010,5 -
22.07.2018 21:00:00 29,6 22,5 4 2 ONO 1010,3 -
22.07.2018 20:00:00 30,1 22,2 8 4 N 1009,7 0,0
22.07.2018 19:00:00 30,0 24,1 15 8 N 1009,0 -
22.07.2018 18:00:00 34,2 18,7 16 9 N 1008,8 -
22.07.2018 17:00:00 31,2 25,3 11 6 NO 1009,2 -
22.07.2018 16:00:00 31,2 20,5 26 14 S 1008,6 -
22.07.2018 15:00:00 30,5 21,5 34 18 S 1009,2 -
22.07.2018 14:00:00 30,1 22,5 35 19 SO 1009,5 0,0
22.07.2018 13:00:00 29,5 24,3 31 17 S 1009,7 -
22.07.2018 12:00:00 28,9 25,3 31 17 OSO 1010,0 -
22.07.2018 11:00:00 28,8 25,8 28 15 S 1009,9 -
22.07.2018 10:00:00 32,1 17,6 21 11 S 1010,0 -
22.07.2018 09:00:00 27,8 26,9 21 11 S 1010,3 -
22.07.2018 08:00:00 27,4 18,1 9 5 NO 1010,2 0,0
22.07.2018 07:00:00 27,9 19,1 29 16 SSO 1010,5 -
22.07.2018 06:00:00 27,6 19,6 26 14 N 1009,5 -
22.07.2018 05:00:00 27,8 18,7 21 11 SSO 1009,8 -
22.07.2018 04:00:00 26,6 25,9 29 16 S 1009,8 -
22.07.2018 03:00:00 26,6 25,0 16 9 S 1010,7 -
22.07.2018 02:00:00 26,8 25,5 11 6 SSO 1011,7 0,0
22.07.2018 01:00:00 27,0 24,4 16 9 S 1012,2 -
22.07.2018 00:00:00 26,9 24,1 16 9 S 1012,7 -
21.07.2018 23:00:00 26,9 26,2 18 10 S 1013,0 -
21.07.2018 22:00:00 27,6 24,8 16 9 S 1013,2 -
21.07.2018 21:00:00 26,9 21,6 15 8 NE 1012,5 -
21.07.2018 20:00:00 27,7 25,1 21 11 S 1012,5 0,0
21.07.2018 19:00:00 28,6 23,9 21 11 S 1012,4 -
21.07.2018 18:00:00 29,6 25,1 13 7 S 1012,8 -
21.07.2018 17:00:00 31,2 25,0 5 3 O 1012,9 -
21.07.2018 16:00:00 31,6 24,2 5 3 SE 1013,2 -
21.07.2018 15:00:00 30,9 17,9 5 3 SSO 1013,6 -
21.07.2018 14:00:00 30,8 20,1 5 3 ESE 1014,0 0,0
21.07.2018 13:00:00 30,4 21,4 5 3 NO 1014,0 -
21.07.2018 12:00:00 29,5 20,9 5 3 ESE 1014,0 -
21.07.2018 11:00:00 29,6 20,7 5 3 ESE 1013,9 -
21.07.2018 10:00:00 29,6 17,7 8 4 ENE 1013,4 -
21.07.2018 09:00:00 29,3 18,4 5 3 NNE 1013,2 -
21.07.2018 08:00:00 28,7 14,8 5 3 NNE 1012,6 0,0
21.07.2018 07:00:00 27,8 10,9 5 3 NO 1012,2 -
21.07.2018 06:00:00 27,7 11,7 8 4 ONO 1012,3 -
21.07.2018 05:00:00 27,2 13,1 5 3 NO 1012,2 -
21.07.2018 04:00:00 27,3 13,6 8 4 N 1012,4 -
21.07.2018 03:00:00 27,9 14,1 4 2 NO 1012,5 -
21.07.2018 02:00:00 28,1 16,6 4 2 S 1012,7 0,0
21.07.2018 01:00:00 28,6 13,2 4 2 OSO 1012,8 -
21.07.2018 00:00:00 28,8 16,6 4 2 SO 1012,9 -
20.07.2018 23:00:00 29,1 12,1 11 6 ONO 1012,7 -
20.07.2018 22:00:00 28,9 12,3 15 8 ONO 1012,3 -
20.07.2018 21:00:00 27,6 18,0 11 6 NNO 1011,9 -
20.07.2018 20:00:00 28,6 22,3 8 4 NNO 1011,8 0,0
20.07.2018 19:00:00 29,8 22,2 5 3 NE 1011,9 -
20.07.2018 18:00:00 31,2 21,1 4 2 ESE 1012,0 -
20.07.2018 17:00:00 31,2 18,9 13 7 S 1012,2 -
20.07.2018 16:00:00 31,1 20,7 15 8 S 1012,2 -
20.07.2018 15:00:00 31,7 23,2 9 5 ESE 1012,6 -
20.07.2018 14:00:00 30,2 22,6 11 6 SSE 1012,9 0,0
20.07.2018 13:00:00 29,3 22,0 18 10 S 1013,0 -
20.07.2018 12:00:00 28,9 24,6 21 11 S 1012,8 -
20.07.2018 11:00:00 28,3 25,5 18 10 S 1012,7 -
20.07.2018 10:00:00 27,9 24,9 15 8 S 1012,5 -
20.07.2018 09:00:00 27,6 23,8 13 7 S 1012,4 -
20.07.2018 08:00:00 27,2 23,0 9 5 S 1011,9 0,0
20.07.2018 07:00:00 27,4 22,3 4 2 SE 1011,4 -
20.07.2018 06:00:00 26,8 15,8 9 5 NNO 1011,2 -
20.07.2018 05:00:00 27,7 13,6 4 2 N 1011,0 -
20.07.2018 04:00:00 27,1 21,3 9 5 SSO 1011,2 -
20.07.2018 03:00:00 28,4 14,2 5 3 S 1011,5 -
20.07.2018 02:00:00 28,6 12,8 5 3 SO 1011,7 0,0
20.07.2018 01:00:00 27,7 13,9 11 6 NNO 1012,1 -
20.07.2018 00:00:00 27,1 15,7 8 4 NNO 1012,2 -
19.07.2018 23:00:00 27,4 22,5 4 2 S 1012,1 -
19.07.2018 22:00:00 27,2 24,0 11 6 S 1012,1 -
19.07.2018 21:00:00 26,9 24,5 11 6 SSO 1011,7 -
19.07.2018 20:00:00 27,0 25,2 15 8 N 1011,5 0,0
19.07.2018 19:00:00 27,9 26,1 24 13 S 1011,5 -
19.07.2018 18:00:00 29,3 26,5 26 14 S 1011,6 -
19.07.2018 17:00:00 30,6 22,7 24 13 S 1011,8 -
19.07.2018 16:00:00 30,7 19,7 18 10 ENE 1012,3 -
19.07.2018 15:00:00 30,7 20,3 21 11 S 1012,5 -
19.07.2018 14:00:00 30,2 23,3 18 10 S 1012,7 0,0
19.07.2018 13:00:00 30,9 20,2 9 5 S 1012,8 -
19.07.2018 12:00:00 30,8 16,7 8 4 S 1013,0 -
19.07.2018 11:00:00 29,7 19,1 8 4 SSE 1013,1 -
19.07.2018 10:00:00 29,2 19,8 5 3 SSE 1013,1 -
19.07.2018 09:00:00 28,2 20,7 8 4 S 1013,2 -
19.07.2018 08:00:00 28,5 15,7 2 1 SSE 1012,7 0,0
19.07.2018 07:00:00 27,3 15,3 5 3 ONO 1012,6 -
19.07.2018 06:00:00 26,9 19,5 4 2 SO 1012,5 -
19.07.2018 05:00:00 27,4 18,1 4 2 S 1012,4 -
19.07.2018 04:00:00 27,6 17,7 4 2 SO 1012,7 -
19.07.2018 03:00:00 26,8 19,4 2 1 S 1012,9 -
19.07.2018 02:00:00 27,2 16,4 8 4 ONO 1012,9 0,0
19.07.2018 01:00:00 27,1 16,0 8 4 ONO 1013,1 -
19.07.2018 00:00:00 27,4 19,9 8 4 OSO 1013,1 -
18.07.2018 23:00:00 27,6 21,8 8 4 SE 1013,0 -
18.07.2018 22:00:00 28,3 19,2 5 3 OSO 1012,9 -
18.07.2018 21:00:00 28,2 21,4 4 2 OSO 1012,4 -
18.07.2018 20:00:00 29,3 21,2 8 4 NE 1012,2 0,0
18.07.2018 19:00:00 30,2 20,1 9 5 ENE 1011,9 -
18.07.2018 18:00:00 31,6 21,4 5 3 E 1011,7 -
18.07.2018 17:00:00 31,5 23,0 8 4 S 1012,1 -
18.07.2018 16:00:00 32,3 24,3 8 4 ESE 1012,2 -
18.07.2018 15:00:00 30,7 23,8 8 4 ESE 1012,3 -
18.07.2018 14:00:00 30,9 22,2 8 4 E 1012,4 0,0
18.07.2018 13:00:00 30,6 21,4 11 6 SE 1012,7 -
18.07.2018 12:00:00 29,7 21,6 9 5 OSO 1012,7 -
18.07.2018 11:00:00 29,2 21,6 8 4 SO 1012,6 -
18.07.2018 10:00:00 28,3 22,3 5 3 SSE 1012,3 -
18.07.2018 09:00:00 28,1 22,3 5 3 S 1012,4 -
18.07.2018 08:00:00 27,7 20,7 5 3 NNE 1012,0 0,0
18.07.2018 07:00:00 26,2 21,4 8 4 ONO 1011,6 -
18.07.2018 06:00:00 27,0 22,3 8 4 O 1011,6 -
18.07.2018 05:00:00 26,4 22,0 2 1 SSE 1011,4 -
18.07.2018 04:00:00 26,3 21,5 4 2 SSO 1011,3 -
18.07.2018 03:00:00 26,2 20,7 9 5 N 1011,2 -
18.07.2018 02:00:00 26,8 19,6 2 1 ESE 1011,3 0,0
18.07.2018 01:00:00 27,0 16,8 9 5 SO 1011,6 -
18.07.2018 00:00:00 27,0 17,1 8 4 NO 1011,7 -
17.07.2018 23:00:00 27,1 17,2 4 2 NNO 1011,4 -
17.07.2018 22:00:00 28,2 16,7 5 3 SSO 1011,0 -
17.07.2018 21:00:00 28,2 16,4 4 2 S 1010,2 -
17.07.2018 20:00:00 29,6 16,0 5 3 ENE 1009,6 0,0
17.07.2018 19:00:00 29,8 14,7 22 12 ONO 1008,9 -
17.07.2018 18:00:00 30,1 16,1 21 11 SO 1008,9 -
17.07.2018 17:00:00 30,6 16,2 46 25 SO 1008,6 -
17.07.2018 16:00:00 31,9 12,2 29 16 SO 1008,6 -
17.07.2018 15:00:00 32,4 14,1 24 13 SO 1008,7 -
17.07.2018 14:00:00 31,9 19,5 13 7 ONO 1009,1 0,0
17.07.2018 13:00:00 31,7 21,8 15 8 SE 1008,9 -
17.07.2018 12:00:00 31,5 19,5 13 7 N 1008,8 -
17.07.2018 11:00:00 33,0 7,2 31 17 SO 1008,4 -
17.07.2018 10:00:00 29,6 24,6 8 4 ONO 1008,6 -
17.07.2018 09:00:00 29,0 22,7 5 3 N 1009,3 -
17.07.2018 08:00:00 27,5 23,3 8 4 NE 1009,3 0,0
17.07.2018 07:00:00 27,4 19,9 8 4 SSO 1009,2 -
17.07.2018 06:00:00 27,7 22,6 16 9 SSO 1009,2 -
17.07.2018 05:00:00 28,1 17,6 15 8 ESE 1009,6 -

tt = Temperatura
td = dewpoint
ff = velocità del vento
dd = direzione del vento
ppp = reduced air pressure
rr = precipitazioni

Stazioni seguenti

WeatherPro
AMSI
MeteoEarth